Meteo pe oră la Dachnoe

Astăzi, 10 Aprilie, Sâmbătă

Timp Temperatura Precipitaţii Vânt Presiune Umiditate
00:00 +3°C° 0 mm 6 m/s 752 mmHg 64%
01:00 +3°C° 0 mm 6 m/s 752 mmHg 64%
02:00 +3°C° 0 mm 6 m/s 752 mmHg 64%
03:00 +3°C° 0 mm 6 m/s 752 mmHg 66%
04:00 +2°C° 0 mm 6 m/s 752 mmHg 67%
05:00 +2°C° 0 mm 5 m/s 752 mmHg 68%
06:00 +3°C° 0 mm 5 m/s 752 mmHg 68%
07:00 +3°C° 0 mm 5 m/s 752 mmHg 67%
08:00 +5°C° 0 mm 5 m/s 752 mmHg 66%
09:00 +5°C° 0 mm 6 m/s 752 mmHg 62%
10:00 +7°C° 0 mm 6 m/s 752 mmHg 59%
11:00 +8°C° 0 mm 6 m/s 752 mmHg 56%
12:00 +8°C° 0.2 mm 6 m/s 752 mmHg 59%
13:00 +8°C° 0.2 mm 6 m/s 752 mmHg 62%
14:00 +8°C° 0.2 mm 6 m/s 752 mmHg 66%
15:00 +6°C° 0.9 mm 5 m/s 753 mmHg 75%
16:00 +5°C° 0.9 mm 4 m/s 753 mmHg 84%
17:00 +3°C° 0.9 mm 3 m/s 754 mmHg 93%
18:00 +3°C° 0.2 mm 3 m/s 754 mmHg 91%
19:00 +3°C° 0.2 mm 3 m/s 755 mmHg 89%
20:00 +3°C° 0.2 mm 3 m/s 756 mmHg 88%
21:00 +3°C° 0 mm 2 m/s 756 mmHg 89%
22:00 +2°C° 0 mm 2 m/s 757 mmHg 91%
23:00 +1°C° 0 mm 2 m/s 757 mmHg 93%

Mâine, 11 Aprilie, Duminică

Timp Temperatura Precipitaţii Vânt Presiune Umiditate
00:00 +2°C° 0 mm 1 m/s 758 mmHg 91%
01:00 +2°C° 0 mm 1 m/s 758 mmHg 90%
02:00 +1°C° 0 mm 1 m/s 759 mmHg 88%
03:00 +1°C° 0 mm 1 m/s 759 mmHg 86%
04:00 +1°C° 0 mm 1 m/s 760 mmHg 84%
05:00 -1°C° 0 mm 0 m/s 760 mmHg 83%
06:00 +2°C° 0 mm 1 m/s 760 mmHg 76%
07:00 +4°C° 0 mm 1 m/s 761 mmHg 70%
08:00 +5°C° 0 mm 1 m/s 761 mmHg 63%
09:00 +7°C° 0 mm 1 m/s 762 mmHg 59%
10:00 +8°C° 0 mm 1 m/s 762 mmHg 55%
11:00 +9°C° 0 mm 1 m/s 762 mmHg 51%
12:00 +10°C° 0 mm 1 m/s 762 mmHg 50%
13:00 +10°C° 0 mm 2 m/s 762 mmHg 50%
14:00 +10°C° 0 mm 2 m/s 763 mmHg 49%
15:00 +10°C° 0 mm 2 m/s 763 mmHg 54%
16:00 +10°C° 0 mm 2 m/s 763 mmHg 58%
17:00 +10°C° 0 mm 2 m/s 762 mmHg 63%
18:00 +8°C° 0 mm 2 m/s 763 mmHg 72%
19:00 +7°C° 0 mm 2 m/s 763 mmHg 81%
20:00 +6°C° 0 mm 2 m/s 763 mmHg 89%
21:00 +5°C° 0 mm 2 m/s 763 mmHg 91%
22:00 +5°C° 0 mm 2 m/s 763 mmHg 93%
23:00 +5°C° 0 mm 2 m/s 763 mmHg 95%

Poimâine, 12 Aprilie, Luni

Timp Temperatura Precipitaţii Vânt Presiune Umiditate
00:00 +5°C° 0 mm 2 m/s 763 mmHg 94%
01:00 +5°C° 0 mm 2 m/s 763 mmHg 93%
02:00 +6°C° 0 mm 2 m/s 763 mmHg 92%
03:00 +5°C° 0 mm 2 m/s 763 mmHg 92%
04:00 +5°C° 0 mm 2 m/s 762 mmHg 92%
05:00 +5°C° 0 mm 2 m/s 762 mmHg 92%
06:00 +5°C° 0 mm 3 m/s 762 mmHg 84%
07:00 +8°C° 0 mm 3 m/s 762 mmHg 77%
08:00 +10°C° 0 mm 3 m/s 762 mmHg 70%
09:00 +11°C° 0 mm 4 m/s 762 mmHg 63%
10:00 +13°C° 0 mm 4 m/s 762 mmHg 56%
11:00 +14°C° 0 mm 5 m/s 762 mmHg 49%
12:00 +15°C° 0 mm 5 m/s 762 mmHg 46%
13:00 +15°C° 0 mm 5 m/s 761 mmHg 44%
14:00 +17°C° 0 mm 4 m/s 761 mmHg 42%
15:00 +17°C° 0 mm 4 m/s 760 mmHg 44%
16:00 +15°C° 0 mm 4 m/s 760 mmHg 47%
17:00 +16°C° 0 mm 3 m/s 759 mmHg 50%
18:00 +13°C° 0 mm 3 m/s 759 mmHg 57%
19:00 +12°C° 0 mm 2 m/s 759 mmHg 64%
20:00 +9°C° 0 mm 2 m/s 759 mmHg 72%
21:00 +9°C° 0 mm 2 m/s 759 mmHg 74%
22:00 +8°C° 0 mm 2 m/s 758 mmHg 76%
23:00 +8°C° 0 mm 2 m/s 758 mmHg 78%

13 Aprilie, Marţi

Timp Temperatura Precipitaţii Vânt Presiune Umiditate
00:00 +7°C° 0 mm 2 m/s 758 mmHg 79%
01:00 +7°C° 0 mm 2 m/s 758 mmHg 80%
02:00 +6°C° 0 mm 2 m/s 758 mmHg 82%
03:00 +6°C° 0 mm 2 m/s 758 mmHg 83%
04:00 +6°C° 0 mm 2 m/s 757 mmHg 84%
05:00 +5°C° 0 mm 2 m/s 757 mmHg 85%
06:00 +7°C° 0 mm 2 m/s 757 mmHg 79%
07:00 +8°C° 0 mm 2 m/s 757 mmHg 73%
08:00 +10°C° 0 mm 3 m/s 757 mmHg 67%
09:00 +11°C° 0 mm 3 m/s 757 mmHg 60%
10:00 +13°C° 0 mm 3 m/s 757 mmHg 54%
11:00 +14°C° 0 mm 3 m/s 757 mmHg 47%
12:00 +16°C° 0 mm 3 m/s 757 mmHg 45%
13:00 +16°C° 0 mm 2 m/s 756 mmHg 43%
14:00 +17°C° 0 mm 2 m/s 756 mmHg 41%
15:00 +17°C° 0 mm 2 m/s 756 mmHg 44%
16:00 +16°C° 0 mm 1 m/s 756 mmHg 47%
17:00 +16°C° 0 mm 1 m/s 756 mmHg 50%
18:00 +14°C° 0 mm 1 m/s 756 mmHg 59%
19:00 +13°C° 0 mm 1 m/s 756 mmHg 68%
20:00 +11°C° 0 mm 1 m/s 756 mmHg 77%
21:00 +10°C° 0 mm 1 m/s 756 mmHg 81%
22:00 +10°C° 0 mm 1 m/s 755 mmHg 86%
23:00 +9°C° 0 mm 1 m/s 755 mmHg 91%

14 Aprilie, Miercuri

Timp Temperatura Precipitaţii Vânt Presiune Umiditate
00:00 +9°C° 0 mm 1 m/s 755 mmHg 92%
01:00 +8°C° 0 mm 1 m/s 755 mmHg 93%
02:00 +8°C° 0 mm 1 m/s 755 mmHg 94%
03:00 +8°C° 0 mm 1 m/s 755 mmHg 94%
04:00 +8°C° 0 mm 1 m/s 755 mmHg 95%
05:00 +7°C° 0 mm 1 m/s 754 mmHg 95%
06:00 +8°C° 0 mm 1 m/s 754 mmHg 91%
07:00 +9°C° 0 mm 1 m/s 755 mmHg 88%
08:00 +10°C° 0 mm 1 m/s 755 mmHg 84%
09:00 +11°C° 0 mm 1 m/s 755 mmHg 80%
10:00 +12°C° 0 mm 1 m/s 755 mmHg 75%
11:00 +13°C° 0 mm 1 m/s 755 mmHg 71%
12:00 +13°C° 0 mm 2 m/s 755 mmHg 71%
13:00 +13°C° 0 mm 2 m/s 755 mmHg 70%
14:00 +12°C° 0 mm 3 m/s 755 mmHg 70%
15:00 +10°C° 0 mm 3 m/s 755 mmHg 73%
16:00 +8°C° 0 mm 4 m/s 755 mmHg 75%
17:00 +7°C° 0 mm 4 m/s 755 mmHg 77%
18:00 +6°C° 0.1 mm 4 m/s 755 mmHg 79%
19:00 +5°C° 0.1 mm 4 m/s 755 mmHg 81%
20:00 +3°C° 0.1 mm 4 m/s 756 mmHg 84%
21:00 +3°C° 0.2 mm 4 m/s 756 mmHg 83%
22:00 +3°C° 0.2 mm 4 m/s 756 mmHg 83%
23:00 +3°C° 0.2 mm 4 m/s 756 mmHg 82%

15 Aprilie, Joi

Timp Temperatura Precipitaţii Vânt Presiune Umiditate
00:00 +3°C° 0.2 mm 3 m/s 756 mmHg 82%
01:00 +3°C° 0.2 mm 3 m/s 756 mmHg 82%
02:00 +2°C° 0.2 mm 3 m/s 756 mmHg 82%
03:00 +2°C° 0.3 mm 3 m/s 757 mmHg 84%
04:00 +2°C° 0.3 mm 3 m/s 757 mmHg 85%
05:00 +2°C° 0.3 mm 3 m/s 757 mmHg 87%
06:00 +2°C° 0.2 mm 3 m/s 757 mmHg 89%
07:00 +2°C° 0.2 mm 3 m/s 758 mmHg 91%
08:00 0°C° 0.2 mm 4 m/s 758 mmHg 94%
09:00 +2°C° 0.1 mm 3 m/s 758 mmHg 90%
10:00 +2°C° 0.1 mm 3 m/s 759 mmHg 86%
11:00 +2°C° 0.1 mm 3 m/s 759 mmHg 82%
12:00 +3°C° 0 mm 3 m/s 759 mmHg 74%
13:00 +4°C° 0 mm 4 m/s 759 mmHg 65%
14:00 +5°C° 0 mm 4 m/s 759 mmHg 57%
15:00 +6°C° 0 mm 4 m/s 759 mmHg 54%
16:00 +6°C° 0 mm 4 m/s 759 mmHg 51%
17:00 +7°C° 0 mm 3 m/s 759 mmHg 49%
18:00 +5°C° 0 mm 4 m/s 759 mmHg 51%
19:00 +4°C° 0 mm 4 m/s 760 mmHg 53%
20:00 +1°C° 0 mm 4 m/s 760 mmHg 56%
21:00 +1°C° 0 mm 4 m/s 760 mmHg 61%
22:00 +1°C° 0 mm 4 m/s 761 mmHg 65%
23:00 0°C° 0 mm 4 m/s 761 mmHg 70%
Arată mai mult

Formular de consimțământ

Meteoprog și furnizorii noștri de servicii pot stoca și accesa date personale, precum cookies, identificatori de dispozitiv sau alte tehnologii similare pe dispozitivul dumneavoastră și procesa astfel de date pentru a personaliza conținutul și reclamele, dar și pentru a oferi caracteristici de social media și pentru a analiza traficul.

  • Stocarea și/sau accesarea informațiilor pe dispozitivul dumneavoastră

    Cookies, identificatori de dispozitiv sau alte informații pot fi stocate sau accesate pe dispozitiv în scopurile indicate mai sus.

  • Reclame și conținut personalizat, evaluarea reclamelor și a conținutului, informații despre audiențe și dezvoltarea produselor

    Reclamele și conținutul pot fi personalizate pe baza unui profil. Pot fi adăugate date suplimentare pentru a personaliza mai bine reclamele și conținutul. Performanța reclamelor și conținutului poate fi măsurată. Pot fi obținute informații despre utilizatorii care au văzut reclamele și conținutul. Aceste date pot fi utilizate pentru a dezvolta sau îmbunătăți experiența utilizatorilor, sistemele și software-ul.

Dând clic pe ‘Sunt de acord’, permiteți utilizarea cookie-urilor menționate, a identificatorilor de dispozitiv, balizelor web sau altor tehnologii similare. Setările pot fi modificate din browser-ul dispozitivului dumneavoastră.

În anumite scopuri, interesele legitime pot prima asupra consimțământului. Puteți citi mai multe informații în acest sens în Politica privind Confidențialitatea Datelor și Cookie.